UAL56 FGSL-FTTJ

Flight info

Callsign UAL56
Flight time 2h 37m
Altitude 23000
Route DLA UG857 SEMIR DCT KELAK KELAK1M
Aircraft B738/M-SDE2E3FGHIRWXY/LB1

Departure

Time 2026-04-23 20:33
Airport Malabo International Airport (FGSL)

Arrival

Time 2026-04-23 23:11
Airport N'Djamena International Airport (FTTJ)
Time Latitude Longitude Altitude Speed Heading
2026-04-23 20:11 3.75783 8.71530 76 ft 0 kts 133°
2026-04-23 20:25 3.75784 8.71529 76 ft 0 kts 133°
2026-04-23 20:25 3.75829 8.71511 75 ft 16 kts 198°
2026-04-23 20:25 3.75883 8.71551 76 ft 5 kts 220°
2026-04-23 20:25 3.75885 8.71549 76 ft 6 kts 245°
2026-04-23 20:26 3.75936 8.71527 77 ft 11 kts 14°
2026-04-23 20:26 3.76010 8.71553 76 ft 11 kts 24°
2026-04-23 20:26 3.76074 8.71596 76 ft 10 kts 41°
2026-04-23 20:26 3.76136 8.71651 72 ft 12 kts 43°
2026-04-23 20:27 3.76205 8.71714 71 ft 13 kts 43°
2026-04-23 20:27 3.76276 8.71780 68 ft 14 kts 42°
2026-04-23 20:27 3.76358 8.71851 66 ft 15 kts 40°
2026-04-23 20:27 3.76441 8.71878 67 ft 11 kts 327°
2026-04-23 20:28 3.76461 8.71852 68 ft 0 kts 302°
2026-04-23 20:28 3.76461 8.71851 68 ft 1 kts 302°
2026-04-23 20:28 3.76465 8.71844 68 ft 2 kts 300°
2026-04-23 20:29 3.76489 8.71791 70 ft 14 kts 271°
2026-04-23 20:29 3.76422 8.71671 75 ft 27 kts 224°
2026-04-23 20:29 3.76238 8.71507 82 ft 38 kts 222°
2026-04-23 20:29 3.76047 8.71331 89 ft 35 kts 223°
2026-04-23 20:30 3.75866 8.71176 97 ft 32 kts 220°
2026-04-23 20:30 3.75543 8.71078 99 ft 24 kts 166°
2026-04-23 20:30 3.75409 8.71004 104 ft 20 kts 221°
2026-04-23 20:31 3.75280 8.70884 112 ft 31 kts 221°
2026-04-23 20:31 3.75084 8.70709 118 ft 38 kts 222°
2026-04-23 20:31 3.74889 8.70536 122 ft 35 kts 221°
2026-04-23 20:31 3.74709 8.70375 124 ft 33 kts 222°
2026-04-23 20:32 3.74539 8.70222 125 ft 31 kts 221°
2026-04-23 20:32 3.74469 8.70131 123 ft 9 kts 259°
2026-04-23 20:32 3.74479 8.70068 121 ft 10 kts 306°
2026-04-23 20:32 3.74565 8.70017 118 ft 22 kts 19°
2026-04-23 20:33 3.74844 8.70253 118 ft 92 kts 42°
2026-04-23 20:33 3.75530 8.70866 115 ft 166 kts 42°
2026-04-23 20:33 3.76480 8.71725 478 ft 195 kts 42°
2026-04-23 20:33 3.77516 8.72649 1153 ft 205 kts 42°
2026-04-23 20:34 3.78507 8.73703 1759 ft 216 kts 64°
2026-04-23 20:34 3.78788 8.75178 2409 ft 223 kts 98°
2026-04-23 20:34 3.78375 8.76675 3055 ft 229 kts 107°
2026-04-23 20:34 3.77916 8.78217 3510 ft 244 kts 102°
2026-04-23 20:35 3.77856 8.79905 4594 ft 243 kts 85°
2026-04-23 20:35 3.78073 8.81518 5749 ft 240 kts 79°
2026-04-23 20:35 3.78405 8.83188 6522 ft 253 kts 77°
2026-04-23 20:35 3.78791 8.84939 7265 ft 266 kts 76°
2026-04-23 20:36 3.79198 8.86730 8338 ft 263 kts 75°
2026-04-23 20:36 3.79597 8.88470 9236 ft 264 kts 75°
2026-04-23 20:36 3.80022 8.90294 9916 ft 275 kts 75°
2026-04-23 20:36 3.80459 8.92179 10684 ft 285 kts 76°
2026-04-23 20:37 3.80917 8.94164 11252 ft 303 kts 76°
2026-04-23 20:37 3.81407 8.96279 11766 ft 323 kts 76°
2026-04-23 20:37 3.81929 8.98546 12238 ft 343 kts 76°
2026-04-23 20:37 3.82464 9.00862 13009 ft 351 kts 76°
2026-04-23 20:38 3.83009 9.03224 14013 ft 350 kts 76°
2026-04-23 20:38 3.83560 9.05614 14734 ft 358 kts 77°
2026-04-23 20:38 3.84122 9.08043 15559 ft 361 kts 77°
2026-04-23 20:38 3.84691 9.10513 16268 ft 366 kts 77°
2026-04-23 20:39 3.85263 9.12992 16941 ft 371 kts 77°
2026-04-23 20:39 3.85839 9.15494 17651 ft 374 kts 77°
2026-04-23 20:39 3.86423 9.18032 18369 ft 376 kts 77°
2026-04-23 20:39 3.87018 9.20601 18929 ft 382 kts 77°
2026-04-23 20:40 3.87615 9.23190 19624 ft 383 kts 77°
2026-04-23 20:40 3.88215 9.25786 20112 ft 390 kts 77°
2026-04-23 20:40 3.88831 9.28459 20619 ft 395 kts 77°
2026-04-23 20:40 3.89446 9.31129 21318 ft 394 kts 76°
2026-04-23 20:41 3.90064 9.33808 21808 ft 398 kts 76°
2026-04-23 20:41 3.90690 9.36521 22190 ft 404 kts 76°
2026-04-23 20:41 3.91313 9.39231 22853 ft 398 kts 76°
2026-04-23 20:41 3.91944 9.41967 22973 ft 410 kts 76°
2026-04-23 20:42 3.92591 9.44772 22992 ft 425 kts 76°
2026-04-23 20:42 3.93255 9.47658 22987 ft 425 kts 76°
2026-04-23 20:42 3.93919 9.50541 22985 ft 421 kts 76°
2026-04-23 20:42 3.94573 9.53383 22987 ft 418 kts 76°
2026-04-23 20:43 3.95230 9.56230 22987 ft 420 kts 76°
2026-04-23 20:43 3.95880 9.59061 22987 ft 421 kts 76°
2026-04-23 20:43 3.96534 9.61903 22992 ft 421 kts 76°
2026-04-23 20:43 3.97189 9.64747 22991 ft 420 kts 76°
2026-04-23 20:44 3.97840 9.67578 22989 ft 420 kts 76°
2026-04-23 20:44 3.98498 9.70435 23001 ft 422 kts 75°
2026-04-23 20:44 3.99596 9.73157 22988 ft 420 kts 58°
2026-04-23 20:44 4.01479 9.75362 23002 ft 422 kts 41°
2026-04-23 20:45 4.03964 9.76964 23011 ft 421 kts 29°
2026-04-23 20:45 4.06517 9.78382 22993 ft 421 kts 30°
2026-04-23 20:45 4.09077 9.79816 22998 ft 421 kts 30°
2026-04-23 20:45 4.11644 9.81265 23000 ft 422 kts 30°
2026-04-23 20:46 4.14203 9.82712 22995 ft 422 kts 30°
2026-04-23 20:46 4.16767 9.84160 23003 ft 423 kts 30°
2026-04-23 20:46 4.19316 9.85601 23010 ft 423 kts 30°
2026-04-23 20:46 4.21918 9.87072 23011 ft 423 kts 30°
2026-04-23 20:47 4.24474 9.88517 23004 ft 422 kts 30°
2026-04-23 20:47 4.27024 9.89959 23006 ft 423 kts 30°
2026-04-23 20:47 4.29605 9.91419 23006 ft 422 kts 30°
2026-04-23 20:47 4.32162 9.92866 23006 ft 423 kts 30°
2026-04-23 20:48 4.34719 9.94311 23010 ft 423 kts 30°
2026-04-23 20:48 4.37259 9.95811 23008 ft 423 kts 33°
2026-04-23 20:48 4.39753 9.97375 23014 ft 425 kts 33°
2026-04-23 20:48 4.42277 9.98954 23013 ft 424 kts 32°
2026-04-23 20:49 4.44778 10.00517 23018 ft 424 kts 32°
2026-04-23 20:49 4.47307 10.02094 23022 ft 425 kts 32°
2026-04-23 20:49 4.49809 10.03655 23021 ft 424 kts 32°
2026-04-23 20:49 4.52306 10.05214 23023 ft 425 kts 32°
2026-04-23 20:50 4.54819 10.06782 23024 ft 425 kts 32°
2026-04-23 20:50 4.57327 10.08346 23032 ft 425 kts 32°
2026-04-23 20:50 4.59844 10.09915 23037 ft 423 kts 32°
2026-04-23 20:50 4.62322 10.11464 23041 ft 423 kts 32°
2026-04-23 20:51 4.64843 10.13038 23042 ft 425 kts 32°
2026-04-23 20:51 4.67373 10.14617 23043 ft 424 kts 32°
2026-04-23 20:51 4.69856 10.16166 23048 ft 423 kts 32°
2026-04-23 20:51 4.72382 10.17745 23048 ft 425 kts 32°
2026-04-23 20:52 4.74877 10.19302 23063 ft 426 kts 32°
2026-04-23 20:52 4.77407 10.20881 23060 ft 427 kts 32°
2026-04-23 20:52 4.79931 10.22457 23063 ft 427 kts 32°
2026-04-23 20:52 4.82452 10.24032 23065 ft 426 kts 32°
2026-04-23 20:53 4.84956 10.25596 23069 ft 426 kts 32°
2026-04-23 20:53 4.87486 10.27178 23074 ft 427 kts 32°
2026-04-23 20:53 4.90011 10.28757 23080 ft 427 kts 32°
2026-04-23 20:53 4.92542 10.30335 23086 ft 424 kts 32°
2026-04-23 20:54 4.95033 10.31894 23093 ft 425 kts 32°
2026-04-23 20:54 4.97552 10.33468 23097 ft 426 kts 32°
2026-04-23 20:54 5.00062 10.35036 23110 ft 426 kts 32°
2026-04-23 20:54 5.02594 10.36619 23120 ft 426 kts 32°
2026-04-23 20:55 5.05125 10.38199 23138 ft 426 kts 32°
2026-04-23 20:55 5.07646 10.39777 23156 ft 427 kts 32°
2026-04-23 20:55 5.10170 10.41354 23164 ft 426 kts 32°
2026-04-23 20:55 5.12669 10.42918 23185 ft 428 kts 32°
2026-04-23 20:56 5.15213 10.44508 23194 ft 428 kts 32°
2026-04-23 20:56 5.17720 10.46077 23200 ft 427 kts 32°
2026-04-23 20:56 5.20245 10.47656 23217 ft 427 kts 32°
2026-04-23 20:56 5.22765 10.49231 23231 ft 426 kts 32°
2026-04-23 20:57 5.25304 10.50821 23239 ft 427 kts 32°
2026-04-23 20:57 5.27802 10.52382 23239 ft 426 kts 32°
2026-04-23 20:57 5.30347 10.53975 23239 ft 427 kts 32°
2026-04-23 20:57 5.32864 10.55550 23234 ft 425 kts 32°
2026-04-23 20:58 5.35381 10.57126 23229 ft 427 kts 32°
2026-04-23 20:58 5.37899 10.58701 23226 ft 426 kts 32°
2026-04-23 20:58 5.40406 10.60271 23218 ft 427 kts 32°
2026-04-23 20:58 5.42956 10.61867 23219 ft 427 kts 32°
2026-04-23 20:59 5.45457 10.63434 23214 ft 428 kts 32°
2026-04-23 20:59 5.47988 10.65017 23211 ft 426 kts 33°
2026-04-23 20:59 5.50501 10.66592 23216 ft 426 kts 32°
2026-04-23 20:59 5.53034 10.68177 23216 ft 427 kts 33°
2026-04-23 21:00 5.55551 10.69755 23209 ft 426 kts 32°
2026-04-23 21:00 5.58096 10.71349 23216 ft 427 kts 33°
2026-04-23 21:00 5.60597 10.72914 23214 ft 425 kts 33°
2026-04-23 21:00 5.63110 10.74489 23213 ft 425 kts 33°
2026-04-23 21:01 5.65606 10.76080 23214 ft 426 kts 33°
2026-04-23 21:01 5.68112 10.77700 23217 ft 425 kts 33°
2026-04-23 21:01 5.70598 10.79310 23215 ft 425 kts 33°
2026-04-23 21:01 5.73096 10.80926 23212 ft 425 kts 33°
2026-04-23 21:02 5.75586 10.82539 23217 ft 426 kts 33°
2026-04-23 21:02 5.78066 10.84146 23211 ft 427 kts 33°
2026-04-23 21:02 5.80570 10.85768 23202 ft 428 kts 33°
2026-04-23 21:02 5.83070 10.87384 23201 ft 427 kts 33°
2026-04-23 21:03 5.85577 10.89007 23209 ft 426 kts 33°
2026-04-23 21:03 5.88069 10.90622 23210 ft 426 kts 33°
2026-04-23 21:03 5.90572 10.92245 23203 ft 427 kts 33°
2026-04-23 21:03 5.93058 10.93855 23198 ft 427 kts 33°
2026-04-23 21:04 5.95570 10.95481 23189 ft 426 kts 33°
2026-04-23 21:04 5.98088 10.97115 23193 ft 427 kts 33°
2026-04-23 21:04 6.00549 10.98709 23183 ft 426 kts 33°
2026-04-23 21:04 6.03072 11.00343 23185 ft 426 kts 33°
2026-04-23 21:05 6.05568 11.01962 23182 ft 426 kts 33°
2026-04-23 21:05 6.08065 11.03584 23182 ft 428 kts 33°
2026-04-23 21:05 6.10558 11.05199 23177 ft 428 kts 33°
2026-04-23 21:05 6.13047 11.06812 23183 ft 427 kts 33°
2026-04-23 21:06 6.15569 11.08447 23181 ft 427 kts 33°
2026-04-23 21:06 6.18049 11.10055 23186 ft 427 kts 33°
2026-04-23 21:06 6.20557 11.11681 23181 ft 426 kts 33°
2026-04-23 21:06 6.23031 11.13287 23180 ft 427 kts 33°
2026-04-23 21:07 6.25546 11.14918 23178 ft 427 kts 33°
2026-04-23 21:07 6.28053 11.16547 23173 ft 427 kts 33°
2026-04-23 21:07 6.30543 11.18163 23171 ft 427 kts 33°
2026-04-23 21:07 6.33045 11.19785 23167 ft 428 kts 33°
2026-04-23 21:08 6.35535 11.21399 23161 ft 425 kts 33°
2026-04-23 21:08 6.38020 11.23015 23166 ft 426 kts 33°
2026-04-23 21:08 6.40523 11.24637 23165 ft 426 kts 33°
2026-04-23 21:08 6.43027 11.26263 23172 ft 426 kts 33°
2026-04-23 21:09 6.45515 11.27882 23172 ft 427 kts 33°
2026-04-23 21:09 6.48003 11.29499 23182 ft 427 kts 33°
2026-04-23 21:09 6.50504 11.31121 23187 ft 426 kts 33°
2026-04-23 21:09 6.53007 11.32748 23199 ft 426 kts 33°
2026-04-23 21:10 6.55500 11.34368 23205 ft 425 kts 33°
2026-04-23 21:10 6.57990 11.35986 23217 ft 425 kts 33°
2026-04-23 21:10 6.60478 11.37601 23222 ft 425 kts 33°
2026-04-23 21:10 6.62962 11.39216 23236 ft 426 kts 33°
2026-04-23 21:11 6.65463 11.40841 23240 ft 427 kts 33°
2026-04-23 21:11 6.67960 11.42465 23249 ft 428 kts 33°
2026-04-23 21:11 6.70442 11.44077 23256 ft 428 kts 33°
2026-04-23 21:11 6.72968 11.45721 23260 ft 428 kts 33°
2026-04-23 21:12 6.75454 11.47337 23271 ft 428 kts 33°
2026-04-23 21:12 6.77952 11.48962 23273 ft 427 kts 33°
2026-04-23 21:12 6.80469 11.50599 23278 ft 426 kts 33°
2026-04-23 21:12 6.82965 11.52221 23272 ft 426 kts 33°
2026-04-23 21:13 6.85430 11.53826 23270 ft 425 kts 33°
2026-04-23 21:13 6.87942 11.55461 23272 ft 426 kts 33°
2026-04-23 21:13 6.90424 11.57077 23271 ft 425 kts 33°
2026-04-23 21:13 6.92898 11.58687 23274 ft 426 kts 33°
2026-04-23 21:14 6.95390 11.60308 23270 ft 427 kts 33°
2026-04-23 21:14 6.97891 11.61937 23270 ft 427 kts 33°
2026-04-23 21:14 7.00401 11.63571 23275 ft 427 kts 33°
2026-04-23 21:14 7.02901 11.65198 23265 ft 427 kts 33°
2026-04-23 21:15 7.05400 11.66825 23244 ft 428 kts 33°
2026-04-23 21:15 7.07897 11.68451 23240 ft 428 kts 33°
2026-04-23 21:15 7.10418 11.70094 23237 ft 429 kts 33°
2026-04-23 21:15 7.12918 11.71723 23230 ft 430 kts 33°
2026-04-23 21:16 7.15430 11.73361 23219 ft 430 kts 33°
2026-04-23 21:16 7.17935 11.74993 23218 ft 429 kts 33°
2026-04-23 21:16 7.20457 11.76638 23221 ft 429 kts 33°
2026-04-23 21:16 7.22970 11.78275 23218 ft 429 kts 33°
2026-04-23 21:17 7.25483 11.79913 23218 ft 429 kts 33°
2026-04-23 21:17 7.27989 11.81548 23219 ft 430 kts 33°
2026-04-23 21:17 7.30509 11.83193 23217 ft 430 kts 33°
2026-04-23 21:17 7.33024 11.84829 23214 ft 429 kts 33°
2026-04-23 21:18 7.35530 11.86464 23196 ft 430 kts 33°
2026-04-23 21:18 7.38045 11.88105 23173 ft 431 kts 33°
2026-04-23 21:18 7.40574 11.89758 23165 ft 432 kts 33°
2026-04-23 21:18 7.43086 11.91396 23157 ft 432 kts 33°
2026-04-23 21:19 7.45622 11.93050 23137 ft 433 kts 33°
2026-04-23 21:19 7.48153 11.94701 23130 ft 433 kts 34°
2026-04-23 21:19 7.50663 11.96341 23119 ft 432 kts 33°
2026-04-23 21:19 7.53197 11.97993 23122 ft 432 kts 34°
2026-04-23 21:20 7.55733 11.99654 23115 ft 432 kts 34°
2026-04-23 21:20 7.58262 12.01306 23099 ft 433 kts 33°
2026-04-23 21:20 7.60787 12.02951 23098 ft 434 kts 34°
2026-04-23 21:20 7.63308 12.04602 23091 ft 434 kts 33°
2026-04-23 21:21 7.65876 12.06278 23089 ft 434 kts 33°
2026-04-23 21:21 7.68403 12.07933 23073 ft 434 kts 33°
2026-04-23 21:21 7.70926 12.09581 23065 ft 435 kts 34°
2026-04-23 21:21 7.73464 12.11240 23056 ft 435 kts 33°
2026-04-23 21:22 7.76009 12.12900 23052 ft 435 kts 33°
2026-04-23 21:22 7.78579 12.14581 23038 ft 436 kts 33°
2026-04-23 21:22 7.81099 12.16232 23035 ft 435 kts 33°
2026-04-23 21:22 7.83650 12.17897 23031 ft 436 kts 33°
2026-04-23 21:23 7.86186 12.19557 23011 ft 436 kts 33°
2026-04-23 21:23 7.88733 12.21224 23024 ft 435 kts 33°
2026-04-23 21:23 7.91306 12.22909 23016 ft 435 kts 33°
2026-04-23 21:23 7.93846 12.24569 22992 ft 438 kts 34°
2026-04-23 21:24 7.96401 12.26244 22994 ft 438 kts 33°
2026-04-23 21:24 7.98941 12.27908 22999 ft 437 kts 33°
2026-04-23 21:24 8.01504 12.29585 22997 ft 439 kts 33°
2026-04-23 21:24 8.04055 12.31257 22984 ft 438 kts 33°
2026-04-23 21:25 8.06634 12.32944 22985 ft 438 kts 33°
2026-04-23 21:25 8.09199 12.34625 22986 ft 438 kts 33°
2026-04-23 21:25 8.11743 12.36292 22982 ft 439 kts 33°
2026-04-23 21:25 8.14315 12.37981 22977 ft 437 kts 33°
2026-04-23 21:26 8.16873 12.39655 22981 ft 437 kts 33°
2026-04-23 21:26 8.19434 12.41334 22978 ft 439 kts 34°
2026-04-23 21:26 8.21975 12.43003 22969 ft 439 kts 33°
2026-04-23 21:26 8.24553 12.44692 22968 ft 439 kts 33°
2026-04-23 21:27 8.27119 12.46378 22966 ft 438 kts 33°
2026-04-23 21:27 8.29681 12.48057 22960 ft 438 kts 33°
2026-04-23 21:27 8.32219 12.49723 22958 ft 439 kts 33°
2026-04-23 21:27 8.34815 12.51427 22953 ft 440 kts 33°
2026-04-23 21:28 8.37381 12.53110 22952 ft 441 kts 33°
2026-04-23 21:28 8.39933 12.54787 22947 ft 440 kts 33°
2026-04-23 21:28 8.42505 12.56476 22943 ft 440 kts 33°
2026-04-23 21:28 8.45079 12.58166 22939 ft 441 kts 33°
2026-04-23 21:29 8.47648 12.59854 22933 ft 440 kts 33°
2026-04-23 21:29 8.50239 12.61556 22927 ft 440 kts 33°
2026-04-23 21:29 8.52787 12.63230 22933 ft 440 kts 33°
2026-04-23 21:29 8.55360 12.64921 22941 ft 440 kts 33°
2026-04-23 21:30 8.57951 12.66622 22951 ft 440 kts 33°
2026-04-23 21:30 8.60499 12.68298 22975 ft 440 kts 33°
2026-04-23 21:30 8.63091 12.70003 22994 ft 440 kts 33°
2026-04-23 21:30 8.65636 12.71676 23018 ft 440 kts 33°
2026-04-23 21:31 8.68205 12.73367 23040 ft 441 kts 33°
2026-04-23 21:31 8.70801 12.75073 23066 ft 440 kts 33°
2026-04-23 21:31 8.73339 12.76744 23088 ft 439 kts 33°
2026-04-23 21:31 8.75917 12.78438 23093 ft 441 kts 33°
2026-04-23 21:32 8.78488 12.80130 23072 ft 442 kts 33°
2026-04-23 21:32 8.81082 12.81838 23043 ft 442 kts 33°
2026-04-23 21:32 8.83643 12.83524 23019 ft 442 kts 33°
2026-04-23 21:32 8.86241 12.85236 22993 ft 441 kts 33°
2026-04-23 21:33 8.88792 12.86917 22967 ft 441 kts 33°
2026-04-23 21:33 8.91385 12.88624 22943 ft 441 kts 33°
2026-04-23 21:33 8.93938 12.90308 22924 ft 442 kts 33°
2026-04-23 21:33 8.96549 12.92028 22907 ft 443 kts 33°
2026-04-23 21:34 8.99111 12.93715 22896 ft 442 kts 33°
2026-04-23 21:34 9.01679 12.95408 22885 ft 442 kts 33°
2026-04-23 21:34 9.04258 12.97109 22883 ft 441 kts 33°
2026-04-23 21:34 9.06847 12.98815 22880 ft 441 kts 33°
2026-04-23 21:35 9.09406 13.00501 22877 ft 443 kts 33°
2026-04-23 21:35 9.12016 13.02223 22874 ft 442 kts 33°
2026-04-23 21:35 9.14583 13.03916 22877 ft 442 kts 33°
2026-04-23 21:35 9.17157 13.05614 22878 ft 442 kts 34°
2026-04-23 21:36 9.22308 13.09016 22877 ft 442 kts 33°
2026-04-23 21:36 9.24919 13.10739 22879 ft 443 kts 33°
2026-04-23 21:36 9.27483 13.12434 22883 ft 442 kts 33°
2026-04-23 21:37 9.30073 13.14143 22885 ft 442 kts 33°
2026-04-23 21:37 9.32653 13.15847 22893 ft 443 kts 33°
2026-04-23 21:37 9.35222 13.17545 22893 ft 442 kts 33°
2026-04-23 21:37 9.37822 13.19263 22896 ft 443 kts 33°
2026-04-23 21:38 9.40388 13.20958 22901 ft 443 kts 33°
2026-04-23 21:38 9.42971 13.22667 22902 ft 442 kts 33°
2026-04-23 21:38 9.45576 13.24388 22909 ft 442 kts 33°
2026-04-23 21:38 9.48139 13.26082 22912 ft 442 kts 33°
2026-04-23 21:39 9.50738 13.27800 22911 ft 443 kts 33°
2026-04-23 21:39 9.53302 13.29497 22912 ft 443 kts 33°
2026-04-23 21:39 9.55902 13.31217 22916 ft 443 kts 33°
2026-04-23 21:39 9.58490 13.32931 22918 ft 442 kts 33°
2026-04-23 21:40 9.61049 13.34623 22929 ft 443 kts 33°
2026-04-23 21:40 9.63652 13.36345 22932 ft 442 kts 33°
2026-04-23 21:40 9.66208 13.38037 22938 ft 441 kts 33°
2026-04-23 21:40 9.68803 13.39753 22944 ft 442 kts 33°
2026-04-23 21:41 9.71392 13.41468 22939 ft 443 kts 33°
2026-04-23 21:41 9.73955 13.43164 22944 ft 442 kts 33°
2026-04-23 21:41 9.76550 13.44883 22945 ft 442 kts 33°
2026-04-23 21:41 9.79117 13.46582 22949 ft 442 kts 33°
2026-04-23 21:42 9.81676 13.48278 22955 ft 443 kts 33°
2026-04-23 21:42 9.84266 13.49995 22958 ft 443 kts 33°
2026-04-23 21:42 9.86843 13.51702 22959 ft 442 kts 33°
2026-04-23 21:42 9.89446 13.53427 22957 ft 443 kts 33°
2026-04-23 21:43 9.92015 13.55130 22961 ft 443 kts 33°
2026-04-23 21:43 9.94589 13.56837 22965 ft 444 kts 33°
2026-04-23 21:43 9.97193 13.58564 22965 ft 443 kts 33°
2026-04-23 21:43 9.99762 13.60269 22969 ft 445 kts 33°
2026-04-23 21:44 10.02369 13.61999 22974 ft 443 kts 33°
2026-04-23 21:44 10.04932 13.63698 22977 ft 443 kts 33°
2026-04-23 21:44 10.07522 13.65417 22982 ft 443 kts 33°
2026-04-23 21:44 10.08397 13.65999 22984 ft 442 kts 33°
2026-04-23 22:42 10.08696 13.66198 22984 ft 442 kts 33°
2026-04-23 22:42 10.10821 13.67609 22984 ft 442 kts 33°
2026-04-23 22:42 10.12145 13.68490 22985 ft 441 kts 33°
2026-04-23 22:42 10.14707 13.70192 22989 ft 443 kts 33°
2026-04-23 22:43 10.17306 13.71921 22988 ft 443 kts 33°
2026-04-23 22:43 10.19878 13.73631 22992 ft 443 kts 33°
2026-04-23 22:43 10.22434 13.75331 22992 ft 442 kts 33°
2026-04-23 22:43 10.25034 13.77061 22992 ft 444 kts 33°
2026-04-23 22:44 10.27621 13.78782 22990 ft 445 kts 33°
2026-04-23 22:44 10.30217 13.80510 22990 ft 446 kts 33°
2026-04-23 22:44 10.32810 13.82235 22986 ft 445 kts 33°
2026-04-23 22:44 10.35396 13.83957 22986 ft 446 kts 33°
2026-04-23 22:45 10.37995 13.85687 22984 ft 445 kts 33°
2026-04-23 22:45 10.40578 13.87407 22984 ft 447 kts 33°
2026-04-23 22:45 10.43187 13.89145 22981 ft 447 kts 33°
2026-04-23 22:45 10.45800 13.90884 22981 ft 447 kts 33°
2026-04-23 22:46 10.48407 13.92623 22980 ft 445 kts 33°
2026-04-23 22:46 10.51002 13.94352 22980 ft 445 kts 33°
2026-04-23 22:46 10.53604 13.96088 22981 ft 447 kts 33°
2026-04-23 22:46 10.56184 13.97809 22978 ft 447 kts 33°
2026-04-23 22:47 10.58775 13.99536 22980 ft 447 kts 33°
2026-04-23 22:47 10.61402 14.01290 22978 ft 448 kts 33°
2026-04-23 22:47 10.64015 14.03031 22973 ft 446 kts 33°
2026-04-23 22:47 10.66593 14.04752 22975 ft 445 kts 33°
2026-04-23 22:48 10.69212 14.06440 22963 ft 446 kts 27°
2026-04-23 22:48 10.72102 14.07639 22996 ft 447 kts 20°
2026-04-23 22:48 10.75006 14.08793 22977 ft 447 kts 21°
2026-04-23 22:48 10.77893 14.09954 22972 ft 447 kts 21°
2026-04-23 22:49 10.80780 14.11123 22974 ft 448 kts 21°
2026-04-23 22:49 10.83717 14.12312 22964 ft 449 kts 21°
2026-04-23 22:49 10.86590 14.13475 22959 ft 448 kts 21°
2026-04-23 22:49 10.89510 14.14660 22957 ft 449 kts 21°
2026-04-23 22:50 10.92409 14.15837 22962 ft 450 kts 21°
2026-04-23 22:50 10.95341 14.17026 22960 ft 451 kts 21°
2026-04-23 22:50 10.98243 14.18202 22957 ft 450 kts 21°
2026-04-23 22:50 11.01164 14.19387 22958 ft 449 kts 21°
2026-04-23 22:51 11.04093 14.20577 22960 ft 449 kts 21°
2026-04-23 22:51 11.06972 14.21746 22953 ft 449 kts 21°
2026-04-23 22:51 11.09899 14.22936 22942 ft 449 kts 21°
2026-04-23 22:51 11.12795 14.24113 22940 ft 449 kts 21°
2026-04-23 22:52 11.15682 14.25285 22874 ft 444 kts 21°
2026-04-23 22:52 11.18543 14.26446 22402 ft 433 kts 21°
2026-04-23 22:52 11.21287 14.27561 21882 ft 424 kts 21°
2026-04-23 22:52 11.24019 14.28674 21383 ft 414 kts 20°
2026-04-23 22:53 11.26635 14.29740 20915 ft 405 kts 20°
2026-04-23 22:53 11.29231 14.30796 20453 ft 396 kts 20°
2026-04-23 22:53 11.31789 14.31838 20012 ft 387 kts 19°
2026-04-23 22:53 11.34255 14.32841 19589 ft 380 kts 19°
2026-04-23 22:54 11.36697 14.33831 19179 ft 380 kts 20°
2026-04-23 22:54 11.39177 14.34844 18812 ft 379 kts 19°
2026-04-23 22:54 11.41616 14.35836 18421 ft 379 kts 19°
2026-04-23 22:54 11.44060 14.36829 18019 ft 379 kts 19°
2026-04-23 22:55 11.46527 14.37833 17608 ft 378 kts 19°
2026-04-23 22:55 11.48950 14.38821 17200 ft 377 kts 18°
2026-04-23 22:55 11.51387 14.39809 16783 ft 376 kts 19°
2026-04-23 22:55 11.53817 14.40798 16370 ft 375 kts 19°
2026-04-23 22:56 11.56242 14.41786 15952 ft 375 kts 19°
2026-04-23 22:56 11.58673 14.42774 15535 ft 374 kts 20°
2026-04-23 22:56 11.61084 14.43760 15125 ft 373 kts 20°
2026-04-23 22:56 11.63514 14.44748 14705 ft 372 kts 20°
2026-04-23 22:57 11.65900 14.45722 14294 ft 371 kts 21°
2026-04-23 22:57 11.68308 14.46705 13886 ft 371 kts 21°
2026-04-23 22:57 11.70721 14.47689 13458 ft 368 kts 21°
2026-04-23 22:57 11.73030 14.48630 12982 ft 352 kts 22°
2026-04-23 22:58 11.75263 14.49545 12601 ft 337 kts 22°
2026-04-23 22:58 11.77400 14.50417 12233 ft 324 kts 22°
2026-04-23 22:58 11.79455 14.51258 11888 ft 314 kts 22°
2026-04-23 22:58 11.81471 14.52081 11538 ft 306 kts 22°
2026-04-23 22:59 11.83418 14.52875 11209 ft 298 kts 22°
2026-04-23 22:59 11.85327 14.53656 10874 ft 292 kts 22°
2026-04-23 22:59 11.87211 14.54427 10562 ft 286 kts 22°
2026-04-23 22:59 11.89020 14.55165 10334 ft 266 kts 23°
2026-04-23 23:00 11.90674 14.55839 9931 ft 252 kts 23°
2026-04-23 23:00 11.92323 14.56513 9457 ft 255 kts 24°
2026-04-23 23:00 11.93950 14.57182 8976 ft 249 kts 24°
2026-04-23 23:00 11.95535 14.57834 8503 ft 244 kts 23°
2026-04-23 23:01 11.97104 14.58476 8031 ft 241 kts 22°
2026-04-23 23:01 11.98653 14.59111 7564 ft 239 kts 22°
2026-04-23 23:01 12.00180 14.59734 7107 ft 236 kts 22°
2026-04-23 23:01 12.01711 14.60360 6647 ft 231 kts 22°
2026-04-23 23:02 12.03205 14.60972 6178 ft 230 kts 22°
2026-04-23 23:02 12.04686 14.61578 5713 ft 228 kts 22°
2026-04-23 23:02 12.06145 14.62174 5251 ft 225 kts 22°
2026-04-23 23:02 12.07416 14.63024 4774 ft 221 kts 50°
2026-04-23 23:03 12.08005 14.64456 4328 ft 225 kts 82°
2026-04-23 23:03 12.07741 14.66051 3883 ft 229 kts 105°
2026-04-23 23:03 12.07221 14.67578 3423 ft 228 kts 106°
2026-04-23 23:03 12.06684 14.69083 3073 ft 223 kts 106°
2026-04-23 23:04 12.06146 14.70562 3043 ft 224 kts 106°
2026-04-23 23:04 12.05602 14.72051 3029 ft 224 kts 106°
2026-04-23 23:04 12.05049 14.73557 3027 ft 225 kts 106°
2026-04-23 23:04 12.04503 14.75049 3027 ft 226 kts 107°
2026-04-23 23:05 12.03946 14.76555 3021 ft 225 kts 106°
2026-04-23 23:05 12.03397 14.78052 3022 ft 226 kts 107°
2026-04-23 23:05 12.02841 14.79557 3020 ft 226 kts 106°
2026-04-23 23:05 12.02286 14.81063 3023 ft 226 kts 106°
2026-04-23 23:06 12.01732 14.82559 3027 ft 226 kts 106°
2026-04-23 23:06 12.01183 14.84061 3028 ft 226 kts 106°
2026-04-23 23:06 12.00627 14.85563 3024 ft 226 kts 106°
2026-04-23 23:06 12.00070 14.87079 3029 ft 226 kts 105°
2026-04-23 23:07 11.99945 14.88626 3025 ft 216 kts 73°
2026-04-23 23:07 12.00659 14.89928 3035 ft 213 kts 47°
2026-04-23 23:07 12.01650 14.91050 3038 ft 214 kts 46°
2026-04-23 23:07 12.02680 14.92165 3030 ft 213 kts 45°
2026-04-23 23:08 12.03711 14.93255 3027 ft 212 kts 45°
2026-04-23 23:08 12.04718 14.94316 3013 ft 201 kts 45°
2026-04-23 23:08 12.05634 14.95325 2786 ft 185 kts 45°
2026-04-23 23:08 12.06483 14.96231 2558 ft 167 kts 44°
2026-04-23 23:09 12.07237 14.97024 2359 ft 145 kts 44°
2026-04-23 23:09 12.07902 14.97718 2121 ft 131 kts 43°
2026-04-23 23:09 12.08559 14.98400 2016 ft 138 kts 43°
2026-04-23 23:09 12.09253 14.99121 1844 ft 141 kts 44°
2026-04-23 23:10 12.09940 14.99836 1667 ft 142 kts 44°
2026-04-23 23:10 12.10635 15.00555 1491 ft 141 kts 44°
2026-04-23 23:10 12.11316 15.01267 1318 ft 140 kts 44°
2026-04-23 23:10 12.11998 15.01977 1142 ft 140 kts 44°
2026-04-23 23:11 12.12684 15.02684 992 ft 137 kts 44°
2026-04-23 23:11 12.13288 15.03301 977 ft 72 kts 42°
2026-04-23 23:11 12.13414 15.03423 976 ft 1 kts 84°
2026-04-23 23:11 12.13377 15.03410 976 ft 11 kts 217°
2026-04-23 23:12 12.13306 15.03416 976 ft 14 kts 140°
2026-04-23 23:12 12.13230 15.03480 976 ft 13 kts 171°
2026-04-23 23:12 12.13146 15.03426 976 ft 14 kts 225°
2026-04-23 23:12 12.13064 15.03337 976 ft 22 kts 228°
2026-04-23 23:13 12.12981 15.03251 976 ft 17 kts 216°
2026-04-23 23:13 12.12904 15.03232 976 ft 6 kts 213°
2026-04-23 23:13 12.12898 15.03204 976 ft 0 kts 271°